NOAA 16 DEB, 41046

Orbit data source: Space-Track

NOAA 16 DEB, 41046 is space debris in SSO originally from a launch on Thu, 21 Sep 2000 UTC launched from the Air Force Western Test Range (AFWTR). Debris objects in space refer to the collection of defunct objects orbiting the Earth. Examples of debris include non-operational satellites, rocket bodies, and fragments generated from explosions, collisions, or faulty payload assembly.

Loading next visibility...
Identifier
41046, 2000-055D
Orbit
SSO
Country
Flag of USUS
Related business
Manufacturer
Unknown
Mission
Spacecraft
Bus & Motor
Unknown
Mass
Unknown
Launch date (UTC)
2000-09-21 (25 years ago)
Launch vehicle
Unknown
Launch site
Air Force Western Test Range (AFWTR)
Object type
Payload
Rocket body
Debris
Shape & HBR
Unknown shape, 0.1 m
Radar Cross Section
Small (<0.1 m²)

Expand to show TLE details & history
Last TLE update: 9 hours ago

TLE from 9 hours ago
0 NOAA 16 DEB
1 41046U 00055D   25311.59851728  .00001245  00000-0  62174-3 0  9997
2 41046  98.6429  17.2055 0012463 233.6445 126.3581 14.18590330514064
Epoch: 2025-11-07T14:21Z
TLE epoch observation values (Epoch: 2025-11-07T14:21:51.892Z)
Latitude
-0.00009°
Longitude
114.69912°
Altitude
838.373 km
Speed
7.431 km/s
True Right ascension
01h 08m 49s
True Declination
0° 00' 00"
Sunlit
Object was in full shadow at epoch
Visualization orbit readout
Latitude
Unknown
Longitude
Unknown
Altitude
Unknown
Speed
Unknown
Apparent Right ascension
Unknown
Apparent Declination
Unknown
Sunlit
N/A
Visualization observer readout
Local Sidereal Time
19:23:35
Azimuth
Unknown
Elevation
Unknown
Doppler factor
Unknown
Orbital elements
Apogee altitude
836.262 km
Perigee altitude
818.301 km
Semi-major axis
7,205.418 km
Eccentricity
0.00125
Inclination
98.6429°
RAAN
17.2055°
Arg. of periapsis
233.6445°
True anomaly
126.47301°
Mean anomaly
126.3581°
Eccentric anomaly
126.41556°
Mean motion
3.54858 °/min
Orbital period
101.45 mins
BSTAR
0.00062174
Loading maneuver chart data...
Computing Atmospheric mass density...
Loading historical data...
Loading historical data...
Loading historical data...
Loading historical data...
Loading historical data...
Loading historical data...
Loading historical data...

Documentation

Showing up to 5 results
|